Dewpoint
62 56 50 43 32 34 30 31 29 36 36 42 40 32 33 36 36 39 49 59 64 66 70 72 73 72 71 71 70 70 69 69 68 67 65 64 64 62 62 62 61 61 62 61 61 61 61 61 62
52 47 39 40 31 29 29 28 26 41 45 45 42 32 41 43 46 49 56 63 64 67 70 71 73 72 71 71 70 70 69 69 68 67 66 64 64 63 63 63 62 62 63 62 62 63 63 64 64
51 47 32 34 33 28 28 31 39 45 45 42 41 40 39 44 50 50 59 64 65 66 69 70 73 72 71 71 70 70 69 69 69 67 66 65 65 66 65 63 64 64 64 65 65 65 66 66 65
44 44 38 32 34 34 34 33 36 45 46 43 41 39 40 43 45 51 63 64 64 66 68 71 72 72 71 71 71 70 69 69 69 68 68 67 66 67 67 65 66 66 66 66 67 67 67 67 67
43 38 30 31 33 36 36 37 36 43 45 42 39 39 39 46 49 62 63 63 62 64 65 70 72 72 72 72 71 70 70 70 70 70 69 68 68 68 67 67 67 66 67 67 68 68 69 68 68
36 36 32 29 30 32 33 33 32 43 45 43 42 39 38 45 49 61 63 63 62 62 62 68 72 72 71 71 71 70 70 70 70 70 70 70 70 70 68 68 67 67 68 69 68 68 68 68 68
33 32 31 32 32 32 33 35 29 30 32 31 34 36 40 42 43 51 61 61 63 63 62 66 68 70 72 71 71 70 70 70 70 70 70 70 70 70 70 70 69 69 70 70 69 68 67 67 67
35 32 31 30 31 31 35 33 31 29 29 34 33 35 36 40 44 46 46 51 62 63 63 66 66 67 68 69 71 71 70 70 70 71 71 71 71 71 70 70 71 70 70 70 68 67 66 66 66
37 32 29 29 30 31 33 32 32 33 32 33 35 34 35 41 44 42 41 39 52 61 64 66 67 65 67 68 69 71 71 71 71 70 71 70 69 69 69 70 70 70 70 70 68 67 67 65 64
45 37 32 30 30 30 30 31 31 32 33 34 35 41 42 39 37 36 39 37 42 59 65 66 67 67 66 66 67 69 68 68 68 68 68 68 67 67 68 69 70 71 71 70 69 68 66 65 62
45 42 37 31 30 30 29 29 31 31 31 34 35 35 37 39 38 38 35 35 35 44 64 66 67 67 66 65 66 68 68 67 68 67 67 68 67 66 66 65 66 69 70 67 67 66 65 62 62
40 42 44 41 38 34 31 30 30 31 32 36 37 36 36 37 38 37 37 37 35 35 59 66 66 67 67 66 66 67 67 67 68 68 67 67 66 64 64 64 63 65 65 64 63 63 62 62 61
29 37 37 38 38 37 35 33 32 32 34 34 35 36 35 35 37 37 39 37 35 36 38 64 66 66 67 66 67 67 67 66 67 68 67 67 66 64 64 63 62 63 62 63 62 61 62 61 61
23 25 30 33 31 31 33 34 35 35 35 34 34 33 34 34 35 37 39 40 39 39 40 58 66 66 67 66 66 67 67 66 66 66 66 66 66 65 63 62 61 62 63 62 62 61 61 62 61
23 24 25 25 26 31 31 30 31 33 32 30 30 32 34 35 35 37 38 40 41 41 43 52 63 67 67 66 66 67 66 66 66 65 65 65 66 64 63 63 63 63 62 61 62 61 61 60 60
27 26 23 25 26 26 28 27 31 32 31 32 31 31 32 32 33 35 38 40 41 44 44 44 61 66 67 66 65 66 66 66 65 65 66 66 65 64 63 63 62 63 62 62 61 61 61 60 60
25 26 24 24 26 27 26 25 29 31 30 32 32 32 33 33 35 38 38 40 42 46 44 46 62 63 65 65 65 66 66 66 65 66 66 66 65 64 64 63 62 63 62 62 61 61 59 59 59
24 25 25 24 25 26 25 25 27 28 28 28 29 30 32 32 35 36 38 40 43 45 46 50 63 64 65 66 66 66 64 64 64 65 66 65 64 65 64 63 63 62 62 61 61 61 60 60 59
24 24 24 27 26 26 25 26 27 28 29 30 31 31 32 34 35 37 40 40 43 46 47 55 64 65 67 66 66 65 62 62 62 64 65 65 64 64 63 63 62 62 62 61 61 60 60 60 60
20 21 22 22 21 25 26 25 26 27 27 28 28 30 31 31 34 38 40 42 48 53 58 59 64 67 67 66 65 64 62 61 61 62 64 65 64 64 63 63 62 61 61 60 59 59 58 59 61
19 18 20 21 20 18 17 16 18 20 24 25 28 30 32 32 33 37 38 42 51 56 61 64 66 67 67 66 64 61 60 60 59 59 60 62 63 63 62 62 61 61 60 60 59 58 57 56 57
17 21 20 19 18 15 17 13 15 16 18 21 23 27 28 28 36 38 38 51 55 60 64 66 66 67 66 66 63 60 59 58 58 59 60 61 62 62 62 62 61 61 60 59 59 59 57 56 55
15 19 22 21 19 17 17 19 14 21 20 21 22 23 25 29 32 33 36 52 59 62 63 66 66 66 65 64 62 59 58 58 58 60 60 61 61 62 62 61 61 60 60 59 59 59 58 57 56
10 19 18 18 19 16 16 15 13 15 17 23 25 26 26 30 30 48 51 59 61 63 64 65 64 63 62 61 60 58 58 58 60 59 60 60 60 61 61 61 60 60 60 59 59 59 59 58 57
10 10 14 15 16 16 16 16 16 21 22 23 22 25 28 29 40 57 58 59 62 63 64 63 62 62 61 59 59 59 59 59 59 59 59 59 60 59 60 60 59 60 60 61 61 60 59 59 58
8 9 15 12 16 14 16 16 16 19 18 18 22 25 33 48 54 57 58 61 63 63 63 62 61 61 60 60 59 59 59 59 60 59 59 60 59 60 60 60 60 60 61 61 61 60 60 59 60
18 7 9 12 14 16 17 18 21 17 17 17 17 33 51 54 56 57 60 62 62 62 62 61 60 60 59 61 60 60 61 60 59 59 59 59 59 59 60 60 60 61 61 61 61 61 60 59 59
21 23 11 13 12 12 17 18 16 19 21 23 22 47 52 54 55 58 60 61 61 61 61 61 60 59 59 60 60 60 60 61 60 60 59 59 59 60 60 60 60 60 61 61 61 60 61 59 58
18 21 15 15 14 12 16 17 21 20 21 21 25 48 52 54 55 57 59 60 60 61 61 60 59 59 59 60 59 60 60 60 59 59 59 59 59 60 60 61 61 61 60 60 60 60 60 58 58
24 20 23 17 11 17 17 15 21 22 24 32 39 50 52 53 55 57 58 59 59 60 60 59 59 58 59 60 59 59 60 59 59 59 59 58 58 59 59 60 61 61 59 59 60 60 60 58 59
Lifted_Index
7 8 9 7 5 3 2 2 2 2 1 1 1 1 1 1 1 1 1 0 -0 -1 -2 -3 -3 -3 -2 -1 -0 1 1 2 2 2 3 4 4 5 5 4 4 4 3 3 3 3 3 2 2
7 8 8 6 4 2 2 2 2 1 1 1 1 1 1 1 1 1 0 -0 -0 -1 -2 -3 -3 -3 -2 -1 -0 0 1 1 2 2 3 4 4 4 4 4 3 3 2 2 2 1 1 2 2
8 8 7 5 3 2 2 2 1 1 1 1 1 1 1 1 1 0 -0 -0 -0 -1 -2 -3 -3 -3 -3 -2 -1 -0 0 1 1 2 2 3 3 3 3 3 3 2 1 0 -0 -0 -0 -0 0
7 7 6 4 3 2 2 2 1 1 1 1 1 1 1 1 0 -0 -1 -1 -0 -1 -2 -3 -3 -3 -3 -2 -2 -1 -0 -0 0 1 2 2 2 2 2 2 2 1 0 -1 -2 -2 -2 -2 -2
7 6 5 3 2 2 2 2 1 1 0 0 1 1 1 0 -0 -1 -2 -1 -0 -0 -1 -2 -3 -3 -3 -3 -2 -1 -1 -1 -1 -0 0 1 1 1 1 1 0 -0 -1 -2 -3 -3 -3 -3 -3
6 5 4 2 2 2 2 2 1 0 -0 -0 0 0 0 0 -1 -2 -2 -2 -1 0 -0 -2 -3 -3 -3 -2 -2 -2 -2 -1 -2 -2 -1 -1 -1 -1 -1 -1 -1 -2 -2 -3 -3 -3 -3 -3 -3
6 5 4 3 2 2 1 1 1 1 0 -0 -0 -0 -0 -0 -0 -1 -2 -2 -1 -0 0 -1 -2 -2 -2 -2 -3 -3 -2 -2 -2 -3 -3 -2 -2 -2 -2 -3 -3 -3 -4 -4 -3 -3 -2 -2 -2
6 5 4 3 3 2 1 1 1 1 1 0 0 -0 -0 -0 0 0 -1 -1 -2 -1 -1 -1 -2 -2 -3 -3 -3 -3 -3 -3 -3 -3 -3 -3 -3 -3 -3 -4 -4 -4 -5 -4 -3 -2 -2 -2 -1
5 5 4 3 3 2 1 1 1 1 1 0 0 -0 -0 0 0 1 0 -0 -1 -2 -2 -2 -3 -3 -3 -3 -3 -4 -4 -4 -4 -4 -4 -4 -4 -4 -4 -5 -5 -5 -5 -5 -4 -3 -2 -1 -1
3 3 4 3 3 3 2 2 1 1 1 1 0 0 -0 0 0 1 1 0 0 -1 -3 -3 -4 -3 -3 -3 -3 -4 -4 -4 -4 -4 -4 -4 -4 -4 -4 -5 -5 -6 -5 -5 -4 -3 -2 -1 -1
2 2 3 3 3 3 2 2 2 1 1 1 0 0 0 1 1 1 1 1 1 -0 -2 -4 -4 -4 -3 -3 -3 -4 -4 -4 -4 -4 -4 -4 -4 -4 -4 -4 -4 -5 -5 -5 -4 -3 -2 -1 -0
2 2 2 2 3 3 2 2 2 1 1 1 0 0 0 1 1 1 1 1 1 0 -2 -3 -4 -3 -3 -3 -3 -4 -4 -4 -4 -4 -4 -4 -4 -4 -4 -4 -4 -5 -5 -4 -3 -2 -2 -1 -0
3 3 2 2 2 2 2 2 2 2 1 1 1 0 0 1 1 1 1 1 1 1 -0 -2 -3 -4 -4 -3 -4 -4 -4 -4 -3 -4 -4 -4 -4 -4 -4 -4 -4 -4 -4 -4 -3 -2 -1 -1 -1
4 3 3 3 3 3 2 3 3 2 2 2 1 1 1 1 2 2 2 1 1 1 1 -1 -3 -4 -4 -4 -4 -4 -4 -4 -3 -4 -4 -4 -4 -5 -5 -5 -5 -4 -4 -4 -3 -2 -1 -1 -1
5 4 4 4 4 3 3 3 4 3 3 2 2 2 2 2 2 2 2 2 2 2 2 0 -2 -4 -4 -4 -4 -5 -5 -4 -4 -4 -4 -5 -5 -5 -6 -6 -5 -5 -4 -4 -3 -2 -1 -1 -0
5 5 5 5 4 3 3 4 4 4 3 3 3 3 3 3 3 3 3 3 2 2 2 1 -2 -4 -5 -5 -5 -5 -5 -5 -5 -4 -5 -5 -6 -6 -6 -5 -5 -5 -4 -4 -3 -2 -1 -1 -0
4 4 5 5 5 3 3 4 5 4 3 3 3 3 4 4 3 3 3 3 2 2 2 1 -2 -4 -5 -5 -5 -5 -5 -5 -5 -5 -5 -6 -6 -6 -5 -5 -4 -4 -4 -3 -3 -2 -2 -1 -1
4 4 5 5 5 4 4 4 4 4 3 3 4 4 4 4 3 3 3 3 2 2 2 0 -2 -4 -5 -5 -6 -6 -6 -6 -5 -5 -5 -6 -5 -5 -4 -4 -4 -4 -4 -3 -3 -2 -2 -1 -1
6 5 5 5 5 4 4 5 5 4 4 4 4 4 4 4 4 4 3 3 2 2 1 -0 -3 -5 -5 -6 -6 -6 -6 -6 -5 -5 -5 -5 -4 -4 -3 -4 -4 -3 -3 -3 -2 -2 -2 -1 -1
7 6 5 5 5 5 4 5 5 5 5 5 5 5 5 4 4 3 3 3 2 1 -0 -2 -3 -5 -6 -7 -7 -7 -6 -6 -5 -5 -5 -4 -4 -3 -3 -3 -3 -3 -3 -2 -2 -2 -1 -1 -1
8 7 6 6 6 5 4 4 5 6 6 6 5 5 5 5 4 4 3 3 2 0 -2 -3 -4 -6 -7 -7 -7 -7 -6 -6 -6 -5 -5 -4 -3 -3 -3 -3 -3 -2 -2 -2 -1 -1 -1 -1 -1
8 8 8 7 6 5 4 4 4 5 6 6 6 6 5 5 4 4 3 3 1 -1 -3 -4 -5 -6 -7 -7 -7 -6 -6 -6 -5 -5 -4 -3 -3 -3 -3 -2 -2 -2 -2 -1 -1 -1 -1 -1 -1
9 9 8 7 7 6 5 4 3 4 5 5 5 5 5 5 4 4 3 2 -0 -2 -4 -6 -6 -7 -7 -7 -7 -6 -6 -5 -4 -3 -2 -2 -2 -2 -2 -2 -1 -1 -1 -1 -1 -1 -1 -1 -1
9 9 7 6 5 5 5 4 3 3 4 4 5 5 5 5 4 4 2 1 -2 -3 -5 -6 -7 -7 -7 -6 -6 -5 -4 -3 -2 -2 -2 -2 -2 -2 -1 -1 -1 -1 -1 -1 -1 -1 -1 -1 -1
9 8 6 4 3 3 4 4 3 4 4 4 5 5 5 5 4 2 1 -1 -2 -4 -4 -5 -6 -6 -6 -5 -4 -4 -3 -2 -2 -2 -1 -1 -1 -1 -1 -1 -1 -1 -1 -1 -1 -1 -1 -1 -1
7 7 6 3 2 3 4 4 4 5 4 4 5 5 5 4 2 1 -1 -2 -3 -4 -4 -5 -5 -5 -4 -3 -3 -2 -2 -1 -1 -1 -1 -1 -1 -1 -0 -0 -0 -1 -1 -1 -1 -1 -0 -0 -1
6 7 6 5 3 3 4 4 5 5 3 3 4 4 3 2 1 -0 -1 -2 -3 -4 -4 -4 -4 -3 -3 -2 -1 -1 -1 -1 -1 -1 -1 -1 -0 -0 -0 -0 -0 -1 -1 -1 -1 -0 0 0 -0
5 5 6 5 4 2 2 3 4 4 2 2 3 2 1 0 -0 -1 -2 -3 -3 -3 -3 -3 -2 -2 -1 -1 -1 -1 -1 -1 -1 -1 -0 -0 -0 0 -0 -0 -1 -1 -1 -1 -0 0 1 1 1
4 4 4 5 4 3 2 3 4 3 2 2 2 1 0 -1 -1 -2 -2 -2 -3 -3 -3 -2 -1 -1 -1 -1 -1 -1 -1 -1 -0 -0 -0 -0 0 0 -0 -0 -0 -1 -0 -0 -0 1 1 1 1
3 3 4 4 5 5 3 3 4 3 2 2 2 1 -0 -1 -1 -2 -2 -2 -2 -3 -2 -1 -1 -0 -0 -0 -0 -0 -1 -0 -0 -0 0 0 0 0 0 0 -0 -1 -1 -0 0 1 1 2 2